Dewpoint
47 47 47 47 48 48 48 48 48 48 48 38 38 37 26 20 14 25 34 35 28 15 6 21 20 13 17 23 26 27 25 22 22 23 24 21 23 20 22 22 14 14 17 17 14 17 11 15 9 14 15 17 17 20 20 23 24 22 18 14 19 22 4 0 6 5 6 10 12 15 17 16 12 14 16 13 7 7 6 6 6 6 4 4 -0 2 1
47 47 47 48 48 48 48 47 47 47 48 43 39 25 22 22 24 25 33 31 29 14 -5 2 13 19 23 24 25 28 28 26 22 23 25 19 17 16 18 21 16 15 20 18 16 16 3 9 9 9 15 15 24 21 23 23 24 17 17 12 19 3 4 6 -2 -6 2 4 7 11 13 13 13 12 14 12 9 6 4 4 2 4 1 6 2 -1 -4
47 47 48 48 47 48 47 47 47 47 48 45 37 22 25 24 24 26 28 26 26 16 18 14 10 16 16 17 16 18 22 27 26 23 25 24 18 14 16 19 20 18 21 20 20 22 11 10 11 9 11 15 23 22 22 20 23 25 26 31 26 4 6 2 -1 -4 -5 -5 -5 1 4 8 12 10 7 7 7 5 7 3 -1 3 2 5 1 -8 8
47 47 47 47 47 47 47 47 47 47 48 48 36 28 24 17 -2 15 22 22 22 25 24 23 20 12 10 4 9 18 17 22 25 26 26 24 23 17 19 21 19 20 18 17 19 18 19 13 10 10 11 12 15 22 21 23 24 25 30 29 17 7 10 7 4 2 2 7 8 10 18 11 7 6 6 6 3 1 0 -1 -3 0 -2 -2 3 5 6
47 47 47 47 47 47 47 47 47 48 48 47 36 28 21 20 16 12 14 21 20 18 22 25 18 9 18 6 9 11 18 19 20 26 15 23 21 23 21 22 16 16 16 16 16 19 18 18 12 11 9 9 13 15 23 22 25 30 28 22 9 4 4 9 13 6 10 12 14 9 14 6 6 2 5 6 5 1 1 -0 1 3 -4 -5 5 7 5
47 47 47 47 47 46 47 47 47 48 48 48 38 26 25 13 14 14 13 13 7 16 15 24 23 22 14 9 18 16 17 18 12 18 22 24 23 17 18 20 20 20 18 15 6 10 14 12 10 8 8 12 16 15 19 20 24 23 17 15 10 5 4 6 9 8 9 11 7 7 7 7 7 7 7 6 5 5 0 1 6 3 -2 2 6 8 6
47 47 47 46 46 46 47 47 48 48 48 46 36 24 26 19 21 19 23 13 17 9 13 25 21 20 21 22 19 16 18 14 19 17 19 18 21 17 7 16 19 22 23 16 11 16 6 7 10 9 11 12 12 9 11 22 19 18 15 15 5 10 5 9 8 8 7 7 6 7 7 8 8 7 8 8 7 5 3 5 7 8 6 7 8 7 7
46 46 46 46 46 47 48 48 48 49 48 43 32 28 17 13 20 8 24 21 20 20 20 23 20 13 19 6 17 19 20 17 20 21 16 7 12 22 18 17 19 22 22 19 13 15 15 10 12 11 15 12 9 10 9 16 19 18 15 13 13 9 5 14 8 3 5 8 7 7 7 7 7 9 9 8 8 7 6 4 8 6 4 8 6 5 5
46 46 46 46 47 48 48 49 49 49 48 33 30 27 27 25 25 23 21 16 18 20 18 18 18 14 16 14 13 21 20 19 21 21 21 15 16 22 19 19 22 22 23 23 21 23 22 17 17 18 16 13 17 12 13 19 14 14 13 12 12 12 10 1 1 4 5 9 7 8 8 8 6 8 9 9 7 5 7 1 7 5 3 6 3 2 4
46 46 46 47 47 48 48 49 49 49 45 33 27 26 27 29 32 28 26 19 21 12 18 18 15 9 12 19 18 18 20 21 23 15 22 26 24 23 23 22 23 20 20 20 24 25 24 26 24 23 22 22 22 21 21 19 15 12 11 13 10 7 8 5 2 0 -0 10 7 7 7 5 1 0 9 9 9 8 8 9 9 9 9 4 0 3 7
47 47 47 47 47 48 48 48 49 48 41 33 31 30 31 28 26 27 25 15 15 15 15 13 16 15 19 21 20 21 23 22 23 4 7 26 26 26 24 24 21 18 19 26 27 26 26 25 24 23 23 22 21 21 19 18 20 19 13 8 7 5 6 6 6 4 0 5 7 8 2 -2 -5 9 9 10 9 9 8 8 8 10 8 8 7 7 6
48 47 47 47 47 47 48 48 48 46 44 40 36 31 31 30 29 25 24 18 10 11 17 11 15 16 21 21 22 20 23 23 23 23 17 19 24 25 23 22 17 15 24 25 26 24 25 25 24 23 23 22 20 19 16 13 13 17 16 11 6 4 4 6 4 2 2 1 -0 -3 -5 -3 6 10 9 9 10 11 9 9 10 9 7 6 5 5 5
48 48 48 48 47 47 48 48 46 46 42 34 31 29 30 31 27 24 22 18 10 14 12 10 12 17 19 23 22 21 22 23 24 27 24 24 20 24 26 22 21 25 26 25 25 23 19 18 19 21 19 18 19 16 16 13 10 10 11 14 9 7 7 4 3 3 -1 -2 -4 -12 -8 4 11 11 9 10 12 10 9 8 10 9 6 5 4 5 4
48 49 48 48 48 49 48 48 46 44 42 38 33 30 29 32 30 22 22 21 19 13 13 16 16 19 21 22 23 22 22 20 20 22 23 25 23 23 26 28 27 28 25 23 22 18 14 7 6 9 11 11 11 9 16 16 13 10 10 10 13 11 1 2 0 1 -7 -8 -4 -1 4 8 5 8 9 8 7 8 8 3 7 6 5 5 4 4 3
49 49 49 48 48 48 48 48 48 43 41 38 34 31 34 32 31 27 26 23 18 18 18 11 19 22 22 23 22 17 16 14 19 16 21 27 23 23 28 30 27 25 24 22 17 15 10 3 3 1 3 2 1 1 15 12 14 11 10 10 11 9 6 8 1 1 -1 -0 -6 -11 -15 -12 -4 9 10 10 9 9 9 9 7 4 5 5 4 3 3
48 48 48 48 47 48 48 48 48 47 43 40 32 32 31 32 31 29 25 23 22 12 23 24 25 22 24 23 24 18 16 14 15 17 16 19 22 27 28 27 27 25 24 16 13 7 6 7 3 -1 3 3 4 8 1 13 9 13 10 8 8 9 8 6 6 -1 0 -2 -5 -8 -8 -9 4 9 10 10 10 10 10 2 0 5 4 5 4 2 2
48 48 47 47 48 48 48 48 48 46 46 44 31 29 29 31 33 30 25 25 24 18 25 27 28 25 24 17 20 20 23 17 20 12 13 15 18 24 24 27 26 26 25 15 11 10 8 4 0 1 1 6 5 4 9 8 5 6 9 10 6 6 6 6 5 -2 -1 -5 -6 -11 -9 -7 8 11 10 10 11 8 1 -9 -4 3 4 4 3 3 2
47 47 47 48 47 48 47 47 48 47 42 41 30 28 27 30 30 30 25 24 22 22 27 28 26 27 23 20 17 23 24 23 23 20 17 18 21 21 22 24 21 22 25 10 10 6 2 2 4 2 4 11 10 6 3 6 2 4 7 8 3 1 1 3 -1 -2 -4 3 -9 -10 -8 12 12 11 10 10 8 3 -7 -8 -2 4 4 3 3 3 3
46 47 47 47 47 47 46 47 47 46 45 39 31 29 27 29 30 27 26 25 23 18 24 30 30 27 28 29 27 27 27 27 25 16 13 17 17 22 23 23 22 13 17 9 10 7 4 5 9 0 3 7 8 2 8 2 3 8 8 3 2 -3 -4 -3 -10 -6 -4 -8 -2 -4 -7 4 12 10 9 10 0 -8 -4 5 4 4 3 3 3 3 1
48 46 47 46 47 46 46 46 47 47 43 37 31 24 25 29 29 29 23 21 20 23 26 26 28 26 28 27 24 23 25 22 22 15 11 11 20 21 17 12 16 17 14 14 7 10 5 7 6 7 2 4 9 8 4 7 10 7 6 3 -1 -3 -1 -5 -4 -5 -5 -10 -12 -9 -16 -2 11 8 5 5 -1 2 4 4 4 4 3 2 1 0 -1
47 47 46 47 47 47 47 46 47 47 46 42 35 26 25 29 29 28 26 24 23 20 19 27 27 27 28 27 28 28 28 22 23 17 21 18 21 16 9 7 11 14 13 8 9 9 7 7 5 5 8 6 10 8 1 -1 3 8 6 -1 -1 0 -4 -8 -9 -7 -5 -17 -9 -9 -0 10 10 6 4 4 4 6 4 3 2 3 2 -1 -1 -1 -2
47 46 47 47 47 47 47 47 47 47 45 42 38 27 25 26 29 30 30 27 23 20 21 25 27 27 28 29 29 29 28 28 29 28 24 19 23 17 14 21 22 17 18 11 9 7 11 9 2 3 6 6 9 2 1 -3 1 3 3 3 -3 6 -3 -3 -2 -3 -2 -2 -4 10 12 10 8 3 3 5 6 8 5 4 3 2 1 -1 -1 -2 -3
46 46 47 46 46 46 47 47 46 46 46 42 34 27 25 26 28 30 28 27 28 30 31 30 30 29 30 30 31 30 30 31 31 30 28 26 19 22 21 19 19 23 23 20 13 9 9 4 7 6 4 5 3 -0 2 -1 -1 -1 -2 5 6 8 7 7 4 -2 3 6 8 15 11 10 9 6 5 4 4 10 5 3 2 1 -2 -2 -3 -4 -4
45 46 46 46 46 45 45 46 45 45 44 41 32 26 26 27 27 28 27 27 24 23 26 29 23 22 23 25 26 27 28 29 30 30 30 28 17 13 19 24 25 21 20 21 19 13 9 7 6 4 6 4 -4 -4 -2 -0 -1 1 -5 -2 -3 6 8 7 1 5 2 -7 10 8 8 9 11 5 4 6 7 5 4 1 -1 -2 -3 -3 -4 -4 -5
45 45 46 46 46 45 45 46 46 44 42 41 36 35 33 31 30 29 25 18 16 19 14 14 22 23 25 26 27 26 27 28 30 30 30 29 27 21 17 23 25 22 20 23 22 14 8 8 6 4 5 6 6 2 8 1 -1 6 -1 -0 -2 -2 8 4 7 7 3 1 6 8 9 8 7 2 0 1 5 3 2 0 -1 -3 -4 -4 -4 -5 -5
45 45 46 47 47 45 45 45 42 42 42 43 39 31 31 31 31 29 29 26 23 19 16 12 18 25 25 25 25 26 27 28 27 26 28 27 27 27 27 27 26 26 25 23 14 12 7 8 4 1 3 4 11 1 0 6 3 7 2 -5 2 4 6 -2 6 5 6 6 7 8 7 7 7 5 1 4 3 2 1 -2 -3 -4 -4 -4 -4 -5 -6
45 45 46 47 47 46 43 43 44 43 40 38 33 32 32 30 31 28 25 27 23 15 19 13 12 19 25 24 27 28 28 27 26 26 25 27 28 29 28 26 24 23 18 10 11 8 7 6 7 6 4 4 -1 2 2 4 4 -1 -0 7 8 5 0 6 3 -3 -4 -2 5 7 3 1 5 4 1 2 0 -0 -1 -3 -4 -4 -4 -4 -5 -6 -6
44 45 46 46 46 44 43 42 43 42 40 38 34 32 30 32 32 32 31 30 23 20 17 11 15 20 24 25 28 27 26 28 27 26 25 25 27 29 27 25 22 13 8 9 10 13 4 10 7 4 3 8 5 3 1 2 -2 -2 1 8 9 3 3 7 -0 -2 0 4 8 7 5 5 4 2 1 0 -1 -2 -3 -4 -4 -4 -4 -4 -6 -7 -7
44 44 45 45 45 46 45 46 45 42 40 36 30 30 29 30 31 34 33 28 26 23 22 21 21 19 14 19 26 24 25 27 26 25 25 25 26 26 25 22 19 14 9 10 7 4 2 7 6 6 9 15 9 4 1 1 -6 -5 -3 8 9 8 9 7 6 6 6 9 5 2 2 2 2 1 1 -1 -2 -3 -4 -4 -4 -4 -4 -5 -6 -6 -7
44 45 44 43 44 44 45 46 46 44 40 29 29 24 23 22 30 35 37 31 26 25 20 13 13 9 19 23 21 23 24 26 24 24 23 22 20 21 21 19 19 22 15 9 7 9 11 8 9 13 14 18 8 1 -1 -8 -10 -0 8 9 8 8 8 10 9 7 6 8 1 1 1 2 1 1 -0 -2 -2 -3 -4 -4 -3 -4 -4 -5 -6 -7 -7
45 45 44 43 42 42 43 44 44 42 37 27 24 18 17 15 16 34 39 31 27 23 18 19 12 11 16 22 22 21 24 26 23 23 24 23 21 20 19 18 18 22 9 7 8 10 10 6 5 10 14 21 8 0 2 -5 -6 -7 3 9 9 6 5 6 10 11 7 2 2 2 3 2 1 2 -1 -2 -2 -3 -3 -3 -4 -3 -4 -5 -6 -7 -8
45 44 44 44 42 41 40 39 38 37 28 25 20 17 16 16 19 34 37 35 28 25 22 17 10 11 11 19 20 24 26 26 22 21 19 22 16 19 18 19 13 23 26 9 12 6 8 13 6 6 5 16 11 -6 -11 -10 -5 -2 4 8 6 6 6 8 8 7 2 2 3 4 3 0 1 2 2 -2 -2 -3 -3 -4 -4 -5 -5 -5 -6 -7 -7
44 44 44 44 44 43 42 40 39 33 25 30 37 40 40 41 40 39 40 29 23 17 16 18 8 13 12 8 16 20 26 20 18 18 13 21 15 18 14 20 18 15 24 19 7 7 12 12 9 4 11 7 3 -6 -8 -5 -4 0 7 9 6 6 6 8 8 5 2 2 2 2 2 0 0 0 -0 -1 -2 -3 -3 -4 -4 -5 -6 -7 -8 -8 -8
44 44 44 44 45 44 43 43 41 38 35 26 20 21 25 39 34 36 28 25 19 16 17 12 7 9 8 12 12 14 22 16 12 15 10 19 19 18 14 14 17 12 13 12 14 11 10 10 5 6 8 5 1 0 -1 6 6 7 7 6 6 6 8 8 8 4 2 2 2 1 1 3 1 0 -0 -1 -2 -3 -2 -4 -5 -7 -7 -8 -8 -8 -9
45 42 43 43 45 46 44 40 28 31 25 27 22 24 26 40 38 35 28 19 10 9 10 12 13 8 9 8 4 11 18 17 10 13 12 14 18 13 16 8 11 9 8 14 11 11 5 8 12 6 6 -1 2 2 1 7 9 8 6 6 6 7 7 7 6 4 2 1 1 1 1 1 0 -1 -1 -2 -3 -3 -3 -4 -6 -7 -8 -8 -8 -9 -9
45 44 43 42 43 41 31 31 29 25 20 18 17 27 40 41 38 29 25 23 18 12 11 8 9 6 3 3 4 7 18 14 14 10 11 13 12 13 10 6 8 12 15 11 4 5 6 15 9 5 -0 1 0 -3 5 9 9 8 6 6 6 7 7 7 7 4 1 1 0 1 1 -1 -1 -1 -1 -2 -3 -4 -4 -5 -6 -7 -8 -8 -9 -9 -9
45 43 40 39 32 27 20 18 30 23 18 21 29 38 39 37 28 28 25 26 24 21 17 9 13 7 12 7 9 12 15 4 11 7 7 11 9 8 6 7 9 18 8 2 -0 5 10 12 3 3 -3 1 2 7 10 11 10 7 6 6 7 7 6 3 2 1 0 0 -0 -1 1 -0 -1 -1 -2 -3 -4 -4 -5 -6 -7 -8 -10 -9 -9 -9 -10
42 41 27 25 23 17 13 15 18 21 35 36 37 27 27 28 16 17 20 18 13 24 14 15 9 6 10 12 5 14 12 4 10 6 5 4 13 6 6 9 15 17 2 0 1 12 2 1 1 5 3 8 9 11 10 9 7 7 7 6 7 6 5 2 1 0 -0 1 1 -0 1 0 -0 -1 -3 -4 -4 -5 -5 -6 -6 -7 -7 -8 -8 -8 -9
37 26 25 22 20 13 17 18 27 39 29 33 31 18 15 15 13 7 6 10 10 13 9 14 8 12 6 3 10 21 14 8 7 1 5 11 6 4 4 4 4 6 -2 -4 2 7 1 -5 -8 -5 2 3 8 11 9 6 6 6 7 8 7 4 2 1 1 0 0 0 0 1 1 1 -1 -3 -4 -3 -4 -4 -5 -6 -7 -7 -8 -10 -10 -10 -11
27 18 19 14 15 16 29 32 37 30 30 18 18 14 7 11 17 2 8 6 6 6 9 9 10 12 14 12 9 10 21 11 6 5 7 6 20 4 6 2 2 2 -1 -4 1 -0 1 -4 -7 -5 0 -4 8 11 7 6 6 6 7 5 2 1 1 1 1 1 1 1 -1 -3 -4 -4 -3 -4 -4 -3 -4 -6 -7 -7 -7 -8 -9 -11 -10 -11 -13
25 20 17 14 16 20 24 28 25 22 18 13 7 5 5 4 8 6 7 4 4 3 8 7 4 7 9 10 11 7 18 16 8 2 3 7 10 10 2 -0 4 -1 -3 -2 2 -3 -4 -4 -12 -4 -0 6 10 9 7 6 6 7 6 3 1 1 1 1 1 1 2 -0 -2 -3 -4 -7 -8 -7 -3 -4 -6 -8 -8 -8 -9 -10 -13 -14 -13 -11 -10
27 21 19 26 27 28 25 21 18 12 6 10 2 -2 4 3 7 11 5 1 1 5 12 8 6 7 9 12 11 9 9 7 7 6 6 2 16 3 -1 -1 -1 -6 -7 -2 -4 -7 -4 -2 -6 -9 -2 3 9 8 7 7 7 7 5 2 2 1 0 0 1 1 1 -1 -3 -4 -4 -8 -10 -7 -6 -8 -10 -11 -12 -14 -14 -16 -15 -14 -12 -13 -12
38 34 31 22 20 18 19 15 14 9 2 3 -5 -8 -3 -1 2 2 2 6 8 5 7 8 9 17 14 10 7 9 10 20 17 7 2 0 18 6 -2 -3 -10 -15 -11 -6 -4 -3 -4 -4 -7 -2 5 9 10 8 7 7 6 7 6 2 1 1 0 -0 1 -1 -3 -4 -7 -7 -7 -10 -11 -10 -12 -15 -15 -15 -16 -15 -15 -16 -15 -13 -12 -13 -14
29 27 18 17 15 12 16 2 10 0 -3 1 -5 -8 -5 -5 8 6 0 4 5 4 8 8 8 10 7 6 6 9 10 13 21 -0 -1 1 -1 -1 -5 -6 -8 -7 -2 -5 -4 -3 -5 -11 -1 5 8 10 10 9 8 7 6 4 2 1 0 0 0 0 -2 -4 -4 -4 -7 -8 -10 -12 -12 -12 -15 -17 -14 -13 -14 -19 -17 -14 -13 -13 -15 -16 -17
17 16 15 10 8 11 6 0 6 -3 -5 -5 9 -2 -3 -6 3 1 6 8 6 6 6 6 8 7 10 10 4 10 15 5 12 -2 -6 -3 -4 -2 -9 -10 -6 -10 -8 -10 -11 -10 -16 -12 2 5 9 10 10 9 8 6 6 5 4 1 0 0 1 -0 -2 -3 -3 -4 -7 -8 -9 -9 -9 -10 -13 -15 -17 -16 -16 -17 -16 -13 -13 -14 -17 -18 -18
20 14 8 4 2 6 4 -1 1 -5 1 9 9 9 3 6 4 4 5 6 7 9 10 6 2 6 8 5 2 2 1 -1 -1 -4 -3 -6 -8 -10 -8 -2 -8 -7 -14 -15 -13 -15 -10 -2 5 7 11 11 10 9 7 6 6 5 3 2 2 1 1 1 -1 -4 -4 -4 -6 -9 -8 -8 -8 -9 -9 -9 -12 -14 -17 -17 -15 -14 -15 -17 -18 -18 -17
15 13 12 7 6 5 7 -1 1 2 1 5 5 7 7 9 9 10 7 7 8 6 5 4 6 6 6 6 4 2 0 -3 -3 -3 -4 -7 -9 -8 1 -9 -12 -12 -17 -20 -21 -17 -10 -1 -1 6 10 10 9 7 6 6 5 4 5 4 3 2 1 1 -2 -3 -4 -7 -9 -8 -9 -8 -8 -9 -10 -12 -13 -13 -13 -14 -15 -16 -16 -17 -17 -17 -19
9 11 11 3 1 4 3 4 3 8 9 10 10 4 3 8 9 8 8 6 9 9 8 6 7 5 4 4 2 1 0 2 -2 -3 -5 -7 -7 -13 -15 -19 -15 -14 -16 -18 -9 -6 -3 6 5 10 10 9 8 7 6 6 5 3 4 3 2 2 1 0 -1 -2 -5 -8 -10 -9 -9 -11 -11 -10 -11 -13 -13 -13 -14 -15 -17 -20 -22 -23 -24 -23 -23
17 9 8 4 6 8 5 10 6 6 6 4 1 5 9 9 10 8 6 5 9 7 7 5 5 3 2 5 0 -2 -2 -3 -7 -8 -6 -8 -13 -17 -17 -21 -18 -16 -7 -4 -1 1 2 6 6 4 4 4 3 6 7 7 6 4 3 2 1 2 1 -0 -1 -2 -6 -8 -11 -12 -13 -13 -13 -14 -15 -14 -15 -13 -11 -17 -20 -23 -24 -22 -21 -21 -21
10 8 12 10 7 6 11 7 9 9 5 6 9 9 6 8 7 5 4 10 4 4 7 11 10 6 2 0 -3 -7 -6 -5 -8 -4 -8 -7 -11 -13 -17 -18 -15 -12 -5 -3 -0 3 5 5 2 3 1 1 2 5 6 6 4 1 1 0 1 -0 -0 -1 -2 -4 -6 -8 -11 -12 -15 -14 -14 -15 -13 -13 -12 -12 -17 -22 -23 -24 -24 -24 -23 -22 -22
11 9 7 7 6 4 13 3 5 4 4 7 8 10 11 9 8 9 8 4 5 3 3 3 2 -2 -2 -7 -13 -14 -15 -5 -5 -5 -9 -13 -12 -13 -14 -12 -6 -3 1 4 4 5 7 5 4 3 1 -1 4 5 5 3 -1 -0 -4 -2 -3 -4 -3 -3 -4 -4 -9 -8 -13 -10 -16 -19 -14 -14 -12 -14 -16 -19 -21 -22 -20 -22 -23 -22 -22 -21 -23
7 6 6 9 6 6 7 8 9 9 11 7 6 6 12 7 8 7 8 11 6 5 2 2 -1 -3 -7 -8 -8 -9 -6 -7 -7 -7 -9 -9 -9 -10 -9 -4 3 7 7 4 6 3 4 3 2 3 4 7 4 4 -0 -2 -5 -7 -7 -7 -6 -6 -5 -5 -6 -7 -10 -13 -18 -17 -18 -20 -19 -19 -18 -18 -18 -20 -19 -17 -19 -20 -20 -21 -21 -22 -24